Regional Weather Roundup
Issued by NWS Albany, NY

Home | Current Version | Previous Version | Text Only | Print | Product List | Glossary On
Versions: 1 2 3 4 5 6 7 8 9 10 11 12 13 14 15 16 17 18 19 20 21 22 23 24 25 26 27 28 29 30 31 32 33 34 35 36 37 38 39 40 41 42 43 44 45 46 47 48 49 50
366
ASUS41 KALY 210210
RWRALY

NEW YORK STATE HOURLY WEATHER ROUNDUP
NATIONAL WEATHER SERVICE ALBANY NY
1000 PM EDT SUN AUG 20 2017

NOTE: "FAIR" INDICATES FEW OR NO CLOUDS BELOW 12,000 FEET WITH NO
SIGNIFICANT WEATHER AND/OR NO OBSTRUCTIONS TO VISIBILITY.

NYZ032-033-038>043-046>054-057>066-NYZ062>081-082-084-210300-
EAST


CITY           SKY/WX    TMP DP  RH WIND       PRES   REMARKS
ALBANY         PTCLDY    69  59  70 CALM      30.11R
GLENS FALLS    CLEAR     61  59  93 S6        30.09R
POUGHKEEPSIE   CLEAR     66  63  90 CALM      30.12R
NEWBURGH       CLEAR     68  64  88 CALM      30.15R
MONTGOMERY     CLEAR     66  63  90 CALM      30.14R
WHITE PLAINS   CLEAR     69  61  75 CALM      30.14R
ISLIP          CLEAR     71  61  70 W5        30.13R
NEW YORK CITY  PTCLDY    80  62  54 NW7       30.13R
CENTRAL PARK   CLEAR     77  59  53 VRB5      30.17R
$$

NYZ005>009-017-018-044>046-055-056-210300-
CENTRAL


CITY           SKY/WX    TMP DP  RH WIND       PRES   REMARKS
FULTON         CLEAR     64  61  90 CALM      30.11R
SYRACUSE       PTCLDY    67  64  90 E3        30.11R
ROME           CLEAR     65  62  90 CALM      30.13R
ELMIRA         PTCLDY    65  63  93 CALM      30.15R
BINGHAMTON     CLEAR     69  61  75 SW5       30.17R
MONTICELLO     CLEAR     63  61  93 CALM      30.19R
$$

NYZ026>034-041>043-087-210300-
NORTH


CITY           SKY/WX    TMP DP  RH WIND       PRES   REMARKS
WATERTOWN      CLEAR     67  64  90 CALM      30.09R
FORT DRUM      NOT AVBL
OGDENSBURG     FAIR      69  64  86 SW7       30.07R
MASSENA        CLEAR     68  64  87 SW7       30.06R
SARANAC LAKE   CLEAR     57  57 100 CALM      30.12R
PLATTSBURGH    CLEAR     66  59  78 CALM      30.05R
$$

NYZ001>004-010>016-019>021-085-210300-
WEST


CITY           SKY/WX    TMP DP  RH WIND       PRES   REMARKS
NIAGARA FALLS  CLEAR     70  60  70 S7        30.11R
BUFFALO        PTCLDY    69  61  75 S7        30.13R
DUNKIRK        CLEAR     64  60  87 CALM      30.13R
JAMESTOWN      CLOUDY    67  60  78 CALM      30.20R
WELLSVILLE     CLEAR     68  55  63 W3        30.22R
ROCHESTER      CLOUDY    69  62  78 SW6       30.12R
PENN YAN       CLEAR     66  58  75 CALM      30.15R
$$

             KEY
       WCI = WIND CHILL INDEX
       VSB = VISIBILITY
       HX  = HEAT INDEX
$$




USA.gov is the U.S. government's official web portal to all federal, state and local government web resources and services.